Biblioteca

Música » Lana Del Rey »

Diet Mountain Dew

21 execuções | Ir para página da faixa

De Sexta 27 de maio de 2011 a Domingo 27 de maio de 2012 Todo o tempo

Faixas (21)
Faixa Álbum Duração Data
Diet Mountain Dew 3:43 Mai 9 2012, 8h34
Diet Mountain Dew 3:43 Mai 9 2012, 7h33
Diet Mountain Dew 3:43 Mai 9 2012, 6h32
Diet Mountain Dew 3:43 Mai 9 2012, 5h31
Diet Mountain Dew 3:43 Mai 9 2012, 4h30
Diet Mountain Dew 3:43 Mai 9 2012, 3h29
Diet Mountain Dew 3:43 Mai 9 2012, 2h29
Diet Mountain Dew 3:43 Mai 9 2012, 1h28
Diet Mountain Dew 3:43 Mai 9 2012, 0h27
Diet Mountain Dew 3:43 Mai 8 2012, 23h26
Diet Mountain Dew 3:43 Mai 8 2012, 22h25
Diet Mountain Dew 3:43 Mai 8 2012, 21h25
Diet Mountain Dew 3:43 Mai 8 2012, 20h24
Diet Mountain Dew 3:43 Mai 8 2012, 19h23
Diet Mountain Dew 3:43 Mai 8 2012, 18h22
Diet Mountain Dew 3:43 Mai 8 2012, 17h21
Diet Mountain Dew 3:43 Abr 11 2012, 11h41
Diet Mountain Dew 3:43 Abr 3 2012, 10h54
Diet Mountain Dew 3:43 Abr 2 2012, 13h18
Diet Mountain Dew 3:43 Mar 30 2012, 17h37
Diet Mountain Dew 3:43 Mar 30 2012, 14h58